Waarnemingen

Advertentie
Mijn weer
Landsort, Zweden (2582): temperatuur & dauwpunt: 10.01.2018 10:00:00 - 16.01.2018 10:00:00 (CET)Landsort, Zweden (2582): windsnelheid & windstoten: 10.01.2018 10:00:00 - 16.01.2018 10:00:00 (CET)Landsort, Zweden (2582): windrichting: 10.01.2018 10:00:00 - 16.01.2018 10:00:00 (CET)Landsort, Zweden (2582): luchtdruk: 10.01.2018 10:00:00 - 16.01.2018 10:00:00 (CET)Landsort, Zweden (2582): zicht: 10.01.2018 10:00:00 - 16.01.2018 10:00:00 (CET)Landsort, Zweden (2582): neerslag: 10.01.2018 10:00:00 - 16.01.2018 10:00:00 (CET)
Datum & Tijd tt [°C] td [°C] ff [km/u] ff [kn] fx [km/u] fx [kn] dd ppp [hPa] vv [km] rr [mm]
16.01.2018 10:00:00 - - - - - - - - - -
16.01.2018 09:00:00 1,6 -0,8 69 37 90 48 ZZO 992,4 7 0,0
16.01.2018 08:00:00 1,7 -0,7 69 37 88 48 ZZO 993,2 7 0,0
16.01.2018 07:00:00 1,5 -0,9 64 35 87 47 ZZO 993,9 7 0,0
16.01.2018 06:00:00 1,4 -1,0 71 39 87 47 ZZO 994,8 7 0,0
16.01.2018 05:00:00 1,4 -1,2 64 35 80 43 ZZO 996,7 8 0,0
16.01.2018 04:00:00 1,5 -1,4 62 34 80 43 ZZO 998,2 10 0,0
16.01.2018 03:00:00 1,3 -1,3 60 33 80 43 ZZO 1000,1 11 0,0
16.01.2018 02:00:00 1,1 -2,1 61 33 77 42 ZZO 1001,4 11 0,0
16.01.2018 01:00:00 0,9 -2,0 59 32 78 42 ZZO 1002,8 11 0,0
16.01.2018 00:00:00 1,0 -2,2 58 31 78 42 Z 1004,5 12 0,0
15.01.2018 23:00:00 0,9 -2,2 56 30 76 41 Z 1005,9 13 0,0
15.01.2018 22:00:00 0,9 -2,3 58 31 76 41 Z 1007,1 12 0,0
15.01.2018 21:00:00 0,7 -2,2 55 30 75 41 Z 1008,2 13 0,0
15.01.2018 20:00:00 0,7 -2,2 60 32 71 39 Z 1009,3 14 0,0
15.01.2018 19:00:00 0,5 -2,5 51 28 69 37 Z 1010,8 13 0,0
15.01.2018 18:00:00 0,3 -2,9 51 28 67 36 Z 1012,1 16 0,0
15.01.2018 17:00:00 0,1 -3,1 48 26 71 38 Z 1013,6 15 0,0
15.01.2018 16:00:00 -0,1 -3,5 53 29 71 38 Z 1014,8 17 0,0
15.01.2018 15:00:00 0,1 -3,5 48 26 69 37 Z 1015,7 18 0,0
15.01.2018 14:00:00 -0,1 -4,0 49 26 68 37 Z 1017,0 19 0,0
15.01.2018 13:00:00 -0,1 -4,0 46 25 68 37 Z 1018,1 16 0,0
15.01.2018 12:00:00 -0,3 -4,0 48 26 66 36 Z 1019,3 18 0,0
15.01.2018 11:00:00 -0,4 -4,1 48 26 69 37 Z 1020,3 17 0,0
15.01.2018 10:00:00 0,1 -3,5 46 25 69 38 Z 1020,9 17 0,0
15.01.2018 09:00:00 0,2 -3,4 49 26 69 38 Z 1021,6 16 0,0
15.01.2018 08:00:00 0,1 -4,2 45 25 63 34 Z 1022,6 20 0,0
15.01.2018 07:00:00 0,3 -3,1 45 24 63 34 Z 1023,3 25 0,0
15.01.2018 06:00:00 0,4 -3,2 44 24 64 35 Z 1024,0 28 0,0
15.01.2018 05:00:00 0,1 -4,5 42 23 64 35 Z 1024,9 37 0,0
15.01.2018 04:00:00 0,3 -3,1 36 19 59 32 Z 1025,8 38 0,0
15.01.2018 03:00:00 0,2 -3,4 36 20 59 32 Z 1026,9 39 0,0
15.01.2018 02:00:00 0,1 -3,5 38 21 56 30 Z 1027,4 50 0,0
15.01.2018 01:00:00 0,1 -3,8 37 20 53 29 Z 1028,6 50 0,0
15.01.2018 00:00:00 -0,2 -4,6 32 17 51 27 Z 1029,4 50 0,0
14.01.2018 23:00:00 -0,1 -4,2 36 19 55 30 Z 1029,9 50 0,0
14.01.2018 22:00:00 -0,3 -5,1 34 18 55 30 Z 1030,7 50 0,0
14.01.2018 21:00:00 0,0 -4,4 34 18 48 26 Z 1031,0 50 0,0
14.01.2018 20:00:00 0,3 -4,2 33 18 44 24 Z 1031,7 50 0,0
14.01.2018 19:00:00 0,6 -4,6 30 16 42 23 Z 1032,4 50 0,0
14.01.2018 18:00:00 0,6 -4,6 27 15 43 23 Z 1032,8 50 0,0
14.01.2018 17:00:00 0,8 -4,0 32 18 43 23 ZZO 1033,3 50 0,0
14.01.2018 16:00:00 1,0 -4,2 25 14 42 23 Z 1033,7 50 0,0
14.01.2018 15:00:00 1,2 -4,4 31 17 41 22 Z 1034,0 50 0,0
14.01.2018 14:00:00 1,2 -4,4 27 15 40 21 Z 1034,6 50 0,0
14.01.2018 13:00:00 1,5 -4,0 27 15 40 21 Z 1035,0 50 0,0
14.01.2018 12:00:00 1,7 -3,6 31 17 40 21 Z 1035,2 50 0,0
14.01.2018 11:00:00 1,8 -3,9 30 16 40 21 Z 1035,8 50 0,0
14.01.2018 10:00:00 1,8 -3,3 28 15 36 19 Z 1036,0 50 0,0
14.01.2018 09:00:00 1,6 -4,3 28 15 37 20 Z 1036,0 50 0,0
14.01.2018 08:00:00 1,6 -4,9 25 14 37 20 Z 1036,4 50 0,0
14.01.2018 07:00:00 1,7 -4,4 28 15 36 19 Z 1036,5 50 0,0
14.01.2018 06:00:00 1,8 -4,3 27 15 - - Z 1036,4 50 0,0
14.01.2018 05:00:00 1,8 -4,3 26 14 38 21 Z 1036,9 50 0,0
14.01.2018 04:00:00 - - - - - - - - - -
14.01.2018 03:00:00 1,6 -3,7 20 11 39 21 Z 1037,8 50 0,0
14.01.2018 02:00:00 1,5 -4,6 26 14 39 21 Z 1038,1 50 0,0
14.01.2018 01:00:00 1,2 -4,9 21 12 35 19 Z 1038,5 50 0,0
14.01.2018 00:00:00 1,2 -4,2 26 14 36 19 Z 1038,7 50 0,0
13.01.2018 23:00:00 1,4 -4,3 25 13 38 20 Z 1039,0 50 0,0
13.01.2018 22:00:00 1,4 -4,5 14 8 38 20 Z 1038,9 50 0,0
13.01.2018 21:00:00 1,4 -5,1 19 10 34 18 Z 1039,3 50 0,0
13.01.2018 20:00:00 1,2 -4,7 13 7 35 19 Z 1039,5 50 0,0
13.01.2018 19:00:00 1,3 -4,6 20 11 35 19 Z 1039,6 50 0,0
13.01.2018 18:00:00 1,1 -4,3 15 8 34 18 Z 1039,8 50 0,0
13.01.2018 17:00:00 1,2 -4,2 13 7 32 17 ZZO 1039,8 50 0,0
13.01.2018 16:00:00 1,1 -4,3 16 9 32 17 Z 1039,8 50 0,0
13.01.2018 15:00:00 0,8 -5,0 13 7 30 16 Z 1040,0 50 0,0
13.01.2018 14:00:00 0,8 -4,6 19 10 29 16 Z 1040,3 50 0,0
13.01.2018 13:00:00 0,9 -4,5 16 9 33 18 Z 1040,6 50 0,0
13.01.2018 12:00:00 0,7 -4,7 14 8 33 18 Z 1041,0 50 0,0
13.01.2018 11:00:00 0,9 -4,5 21 11 28 15 ZO 1041,1 50 0,0
13.01.2018 10:00:00 0,8 -4,2 9 5 29 16 Z 1041,1 50 0,0
13.01.2018 09:00:00 0,8 -4,2 15 8 29 16 ZO 1041,1 50 0,0
13.01.2018 08:00:00 0,8 -4,2 18 10 30 16 Z 1040,8 50 0,0
13.01.2018 07:00:00 0,7 -4,1 19 10 30 16 Z 1040,5 50 0,0
13.01.2018 06:00:00 0,7 -4,0 18 10 29 16 ZZO 1040,9 50 0,0
13.01.2018 05:00:00 0,5 -3,8 15 8 25 14 ZZO 1041,2 50 0,0
13.01.2018 04:00:00 0,2 -4,3 11 6 27 14 ZZW 1041,4 50 0,0
13.01.2018 03:00:00 0,4 -3,5 16 9 29 16 ZO 1041,3 50 0,0
13.01.2018 02:00:00 0,4 -3,7 14 8 29 16 ZO 1041,2 50 0,0
13.01.2018 01:00:00 0,4 -3,5 15 8 29 16 Z 1041,1 50 0,0
13.01.2018 00:00:00 0,3 -3,6 16 9 31 17 Z 1041,3 50 0,0
12.01.2018 23:00:00 0,6 -2,6 23 12 31 17 ZO 1041,1 50 0,0
12.01.2018 22:00:00 0,3 -3,3 16 9 32 17 OZO 1041,2 50 0,0
12.01.2018 21:00:00 0,7 -2,7 21 11 35 19 ZO 1040,9 50 0,0
12.01.2018 20:00:00 0,5 -2,9 15 8 35 19 ZO 1040,6 50 0,0
12.01.2018 19:00:00 0,7 -3,0 16 9 33 18 ZO 1040,4 50 0,0
12.01.2018 18:00:00 0,9 -2,9 20 11 31 17 OZO 1040,2 50 0,0
12.01.2018 17:00:00 1,2 -2,6 20 11 31 17 OZO 1039,7 50 0,0
12.01.2018 16:00:00 1,2 -2,7 13 7 29 16 O 1039,7 50 0,0
12.01.2018 15:00:00 1,4 -2,5 19 10 32 18 O 1039,3 50 0,0
12.01.2018 14:00:00 1,6 -2,4 20 11 32 18 OZO 1039,0 50 0,0
12.01.2018 13:00:00 1,6 -1,8 22 12 34 18 O 1038,7 50 0,0
12.01.2018 12:00:00 1,7 -1,9 24 13 36 19 O 1038,5 50 0,0
12.01.2018 11:00:00 1,9 -0,8 22 12 36 19 O 1038,4 50 0,0
12.01.2018 10:00:00 1,7 -1,6 19 11 34 18 O 1038,0 50 0,0
12.01.2018 09:00:00 1,6 -1,3 19 10 33 18 O 1037,5 50 0,0
12.01.2018 08:00:00 1,6 -1,3 20 11 31 17 O 1037,0 50 0,0
12.01.2018 07:00:00 1,8 -0,3 18 10 29 16 O 1036,2 41 0,0
12.01.2018 06:00:00 1,6 -0,2 18 10 34 18 O 1035,8 50 0,0
12.01.2018 05:00:00 1,5 0,2 20 11 34 18 O 1035,3 50 0,0
12.01.2018 04:00:00 1,4 -0,2 21 12 34 18 O 1035,0 50 0,0
12.01.2018 03:00:00 1,6 0,7 24 13 35 19 OZO 1034,4 49 0,0
12.01.2018 02:00:00 1,7 1,3 24 13 36 20 OZO 1034,0 49 0,0
12.01.2018 01:00:00 2,0 1,9 26 14 37 20 O 1033,7 38 0,0
12.01.2018 00:00:00 1,9 1,8 28 15 42 23 O 1033,2 42 0,0
11.01.2018 23:00:00 1,9 1,6 28 15 42 23 OZO 1032,5 40 0,0
11.01.2018 22:00:00 2,2 2,1 28 15 41 22 O 1031,9 22 0,0
11.01.2018 21:00:00 2,3 2,2 32 18 44 24 O 1031,1 36 0,0
11.01.2018 20:00:00 1,8 1,7 33 18 44 24 O 1030,6 19 0,0
11.01.2018 19:00:00 2,1 2,0 29 16 44 24 O 1030,1 13 0,0
11.01.2018 18:00:00 2,2 2,1 30 16 42 23 O 1029,6 17 0,0
11.01.2018 17:00:00 2,5 0,2 30 16 42 23 O 1029,0 50 0,0
11.01.2018 16:00:00 2,1 0,3 33 18 41 22 O 1028,6 50 0,0
11.01.2018 15:00:00 2,2 0,6 32 17 40 21 O 1028,0 50 0,0
11.01.2018 14:00:00 2,3 1,0 29 16 39 21 O 1027,6 46 0,0
11.01.2018 13:00:00 2,2 1,8 29 16 41 22 O 1027,2 41 0,0
11.01.2018 12:00:00 2,3 1,1 31 17 44 24 O 1026,9 42 0,0
11.01.2018 11:00:00 2,3 1,4 32 17 44 24 O 1026,5 31 0,0
11.01.2018 10:00:00 2,3 1,1 35 19 44 24 O 1026,1 48 0,0
11.01.2018 09:00:00 1,9 1,2 34 19 44 24 ONO 1025,6 44 0,0
11.01.2018 08:00:00 1,7 0,5 34 18 48 26 O 1025,0 37 0,0
11.01.2018 07:00:00 1,4 0,7 37 20 48 26 O 1024,4 31 0,0
11.01.2018 06:00:00 1,6 0,9 36 19 46 25 O 1023,9 49 0,0
11.01.2018 05:00:00 1,5 1,1 36 19 46 25 O 1023,7 48 0,0
11.01.2018 04:00:00 1,3 0,4 39 21 45 24 O 1023,8 50 0,0
11.01.2018 03:00:00 1,5 0,8 35 19 43 23 O 1023,7 47 0,0
11.01.2018 02:00:00 1,8 1,4 32 17 39 21 O 1024,0 50 0,0
11.01.2018 01:00:00 - - - - - - - - - -
11.01.2018 00:00:00 2,0 1,9 26 14 43 23 O 1023,9 50 0,0
10.01.2018 23:00:00 1,5 1,4 28 15 43 23 O 1023,7 29 0,0
10.01.2018 22:00:00 1,8 1,7 36 19 43 23 O 1023,2 48 0,0
10.01.2018 21:00:00 1,8 1,7 32 17 41 22 O 1023,5 42 0,0
10.01.2018 20:00:00 1,7 1,6 33 18 39 21 O 1023,3 47 0,0
10.01.2018 19:00:00 2,6 2,5 34 18 38 20 O 1022,9 47 0,0
10.01.2018 18:00:00 2,0 1,9 29 16 36 19 O 1023,2 48 0,0
10.01.2018 17:00:00 1,5 1,4 26 14 39 21 O 1023,6 3,5 0,0
10.01.2018 16:00:00 1,4 1,3 24 13 39 21 OZO 1023,4 1,4 0,0
10.01.2018 15:00:00 1,0 0,9 28 15 36 19 O 1023,2 1,3 0,0
10.01.2018 14:00:00 0,9 0,8 26 14 35 19 O 1023,4 1,1 0,0
10.01.2018 13:00:00 0,9 0,8 23 12 32 17 O 1024,2 1,7 0,0
10.01.2018 12:00:00 0,5 0,4 20 11 26 14 OZO 1024,7 1,0 0,0
10.01.2018 11:00:00 1,0 0,9 16 9 25 13 O 1024,7 1,1 0,0
10.01.2018 10:00:00 0,6 0,5 16 9 26 14 O 1025,0 0,7 0,0

tt = temperatuur
td = dauwpunt
ff = windsnelheid
fx = windstoten
dd = windrichting
ppp = luchtdruk
vv = zicht
rr = neerslag

Weerstations in de omgeving